OpenBCM V1.13 (Linux)

Packet Radio Mailbox

DB0FHN

[JN59NK Nuernberg]

 Login: GUEST





  
I6KZR  > KEPLER   19.02.03 23:25l 1460 Lines 39193 Bytes #999 (0) @ WW
BID : 24683_IK6WID
Read: DB0FHN GUEST
Subj: Old Istantrak Keplerians #050
Path: DB0FHN<DB0RGB<OK0PPL<RZ6HXA<SP7MGD<ON0BEL<IK6PYS<IK6PYS<I6ZLO<IK6WID
Sent: 030219/2054Z @:IK6WID.#AP.IMAR.ITA.EU #:24683 [MONTE URANO]  FBB7.00i
From: I6KZR@IK6WID.#AP.IMAR.ITA.EU
To  : KEPLER@WW


Satellite: OSCAR 7
Catalog number: 07530
Epoch time:      103049.13304631
Element set:     150 
Inclination:      101.7614 deg
RA of node:        96.9239 deg
Eccentricity:    0.0012270
Arg of perigee:    78.8215 deg
Mean anomaly:     281.4235 deg
Mean motion:   12.53564389 rev/day
Decay rate:   -2.9000E-007 rev/day^2
Epoch rev:           29313
Checksum:              282

Satellite: GOES 2
Catalog number: 10061
Epoch time:      103041.64344854
Element set:     84 
Inclination:       14.1321 deg
RA of node:        13.4869 deg
Eccentricity:    0.0012973
Arg of perigee:   199.7553 deg
Mean anomaly:     160.2330 deg
Mean motion:    0.99401033 rev/day
Decay rate:   -1.4600E-006 rev/day^2
Epoch rev:            3875
Checksum:              265

Satellite: GOES 3
Catalog number: 10953
Epoch time:      103048.93652485
Element set:     926 
Inclination:       13.4099 deg
RA of node:        17.2364 deg
Eccentricity:    0.0005564
Arg of perigee:   342.3042 deg
Mean anomaly:      17.7219 deg
Mean motion:    1.00279199 rev/day
Decay rate:   -9.6999E-007 rev/day^2
Epoch rev:            4349
Checksum:              327

Satellite: GOES 6
Catalog number: 14050
Epoch time:      103048.05134892
Element set:     424 
Inclination:       10.4035 deg
RA of node:        35.5570 deg
Eccentricity:    0.0004045
Arg of perigee:   342.0560 deg
Mean anomaly:      17.9911 deg
Mean motion:    1.00302445 rev/day
Decay rate:    4.1000E-007 rev/day^2
Epoch rev:           13062
Checksum:              224

Satellite: OSCAR 10
Catalog number: 14129
Epoch time:      103050.37921519
Element set:     917 
Inclination:       25.9543 deg
RA of node:       164.1610 deg
Eccentricity:    0.6026559
Arg of perigee:   329.0466 deg
Mean anomaly:       6.3565 deg
Mean motion:    2.05869657 rev/day
Decay rate:   -3.0300E-006 rev/day^2
Epoch rev:           12008
Checksum:              291

Satellite: OSCAR 11 (UoSA
Catalog number: 14781
Epoch time:      103050.22057023
Element set:     74 
Inclination:       98.1181 deg
RA of node:        24.1478 deg
Eccentricity:    0.0008606
Arg of perigee:   203.0285 deg
Mean anomaly:     157.0541 deg
Mean motion:   14.78004822 rev/day
Decay rate:    1.8709E-005 rev/day^2
Epoch rev:            1633
Checksum:              377

Satellite: NOAA 10
Catalog number: 16969
Epoch time:      103049.89893436
Element set:     665 
Inclination:       98.7300 deg
RA of node:        44.0081 deg
Eccentricity:    0.0013432
Arg of perigee:    86.2840 deg
Mean anomaly:     273.9877 deg
Mean motion:   14.27065138 rev/day
Decay rate:    2.1500E-006 rev/day^2
Epoch rev:           85395
Checksum:              332

Satellite: GOES 7
Catalog number: 17561
Epoch time:      103048.62060979
Element set:     855 
Inclination:        7.5984 deg
RA of node:        55.5542 deg
Eccentricity:    0.0005433
Arg of perigee:   262.3589 deg
Mean anomaly:     233.9782 deg
Mean motion:    1.00252868 rev/day
Decay rate:    4.5999E-007 rev/day^2
Epoch rev:            4173
Checksum:              341

Satellite: COSMOS 1861
Catalog number: 18129
Epoch time:      103043.82529073
Element set:     199 
Inclination:       82.9262 deg
RA of node:       150.8051 deg
Eccentricity:    0.0010159
Arg of perigee:   242.7255 deg
Mean anomaly:     117.2863 deg
Mean motion:   13.72700628 rev/day
Decay rate:    9.1999E-007 rev/day^2
Epoch rev:           78372
Checksum:              337

Satellite: EUTELSAT 1-F4 
Catalog number: 18351
Epoch time:      103044.89056880
Element set:     40 
Inclination:        7.1880 deg
RA of node:        58.6916 deg
Eccentricity:    0.0006913
Arg of perigee:   200.5719 deg
Mean anomaly:     159.5335 deg
Mean motion:    0.98689370 rev/day
Decay rate:   -1.8499E-006 rev/day^2
Epoch rev:            4263
Checksum:              439

Satellite: NOAA 11
Catalog number: 19531
Epoch time:      103049.86540457
Element set:     503 
Inclination:       98.9011 deg
RA of node:       131.2472 deg
Eccentricity:    0.0011517
Arg of perigee:   197.9846 deg
Mean anomaly:     162.0919 deg
Mean motion:   14.14538467 rev/day
Decay rate:    2.2199E-006 rev/day^2
Epoch rev:           74284
Checksum:              324

Satellite: ASTRA 1A
Catalog number: 19688
Epoch time:      103049.87734355
Element set:     576 
Inclination:        1.3890 deg
RA of node:        94.7923 deg
Eccentricity:    0.0004583
Arg of perigee:   223.6738 deg
Mean anomaly:     150.9625 deg
Mean motion:    1.00271946 rev/day
Decay rate:    3.0999E-007 rev/day^2
Epoch rev:            3220
Checksum:              326

Satellite: OSCAR 14 (UOSA
Catalog number: 20437
Epoch time:      103049.70846109
Element set:     167 
Inclination:       98.2733 deg
RA of node:        93.3157 deg
Eccentricity:    0.0010121
Arg of perigee:   198.2743 deg
Mean anomaly:     161.8077 deg
Mean motion:   14.31238591 rev/day
Decay rate:    1.7600E-006 rev/day^2
Epoch rev:           68251
Checksum:              305

Satellite: OSCAR 15 (UOSA
Catalog number: 20438
Epoch time:      103046.64987680
Element set:     776 
Inclination:       98.2480 deg
RA of node:        79.5362 deg
Eccentricity:    0.0009039
Arg of perigee:   220.0855 deg
Mean anomaly:     139.9661 deg
Mean motion:   14.30197311 rev/day
Decay rate:    1.1600E-006 rev/day^2
Epoch rev:           68174
Checksum:              328

Satellite: OSCAR 16 (PACS
Catalog number: 20439
Epoch time:      103049.16415571
Element set:     853 
Inclination:       98.3176 deg
RA of node:       104.4791 deg
Eccentricity:    0.0010320
Arg of perigee:   206.7224 deg
Mean anomaly:     153.3434 deg
Mean motion:   14.31472440 rev/day
Decay rate:    2.0899E-006 rev/day^2
Epoch rev:           68247
Checksum:              298

Satellite: OSCAR 17 (DOVE
Catalog number: 20440
Epoch time:      103050.55084886
Element set:     728 
Inclination:       98.3375 deg
RA of node:       109.7029 deg
Eccentricity:    0.0010314
Arg of perigee:   201.7424 deg
Mean anomaly:     158.3330 deg
Mean motion:   14.31751247 rev/day
Decay rate:    2.3800E-006 rev/day^2
Epoch rev:           68274
Checksum:              291

Satellite: OSCAR 18 (WEBE
Catalog number: 20441
Epoch time:      103050.19339292
Element set:     15 
Inclination:       98.3331 deg
RA of node:       108.5692 deg
Eccentricity:    0.0011155
Arg of perigee:   202.9733 deg
Mean anomaly:     157.0952 deg
Mean motion:   14.31554490 rev/day
Decay rate:    1.9199E-006 rev/day^2
Epoch rev:           68267
Checksum:              306

Satellite: OSCAR 19 (LUSA
Catalog number: 20442
Epoch time:      103049.68253852
Element set:     966 
Inclination:       98.3479 deg
RA of node:       111.1040 deg
Eccentricity:    0.0011241
Arg of perigee:   204.7721 deg
Mean anomaly:     155.2920 deg
Mean motion:   14.31717584 rev/day
Decay rate:    2.2100E-006 rev/day^2
Epoch rev:           68265
Checksum:              289

Satellite: JAS 1B (FUJI 2
Catalog number: 20480
Epoch time:      103048.84417454
Element set:     463 
Inclination:       99.0469 deg
RA of node:        11.7227 deg
Eccentricity:    0.0540649
Arg of perigee:     5.5202 deg
Mean anomaly:     355.1562 deg
Mean motion:   12.83330367 rev/day
Decay rate:    1.7000E-007 rev/day^2
Epoch rev:           61042
Checksum:              368

Satellite: HST
Catalog number: 20580
Epoch time:      103050.16002814
Element set:     333 
Inclination:       28.4690 deg
RA of node:        34.2359 deg
Eccentricity:    0.0004058
Arg of perigee:   269.3998 deg
Mean anomaly:     198.4633 deg
Mean motion:   14.97825617 rev/day
Decay rate:    8.0500E-006 rev/day^2
Epoch rev:           50272
Checksum:              300

Satellite: EUTELSAT 2-F1
Catalog number: 20777
Epoch time:      103049.79025269
Element set:     33 
Inclination:        3.5024 deg
RA of node:        84.5573 deg
Eccentricity:    0.0001409
Arg of perigee:   298.6015 deg
Mean anomaly:     125.6374 deg
Mean motion:    1.00271366 rev/day
Decay rate:   -1.0200E-006 rev/day^2
Epoch rev:            2610
Checksum:              262

Satellite: FENGYUN 1B
Catalog number: 20788
Epoch time:      103050.17597216
Element set:     885 
Inclination:       99.0256 deg
RA of node:        32.3495 deg
Eccentricity:    0.0015395
Arg of perigee:   226.8017 deg
Mean anomaly:     133.1862 deg
Mean motion:   14.02134896 rev/day
Decay rate:   -1.8000E-007 rev/day^2
Epoch rev:           63762
Checksum:              310

Satellite: EUTELSAT 2-F2
Catalog number: 21056
Epoch time:      103046.68872131
Element set:     618 
Inclination:        2.7246 deg
RA of node:        87.9532 deg
Eccentricity:    0.0003121
Arg of perigee:   260.7722 deg
Mean anomaly:      93.0131 deg
Mean motion:    1.00277947 rev/day
Decay rate:    1.2100E-006 rev/day^2
Epoch rev:            3184
Checksum:              367

Satellite: INFORMATOR 1
Catalog number: 21087
Epoch time:      103044.17346432
Element set:     598 
Inclination:       82.9434 deg
RA of node:       321.4015 deg
Eccentricity:    0.0033772
Arg of perigee:   266.6023 deg
Mean anomaly:      93.1271 deg
Mean motion:   13.74925957 rev/day
Decay rate:    8.3999E-007 rev/day^2
Epoch rev:           60414
Checksum:              416

Satellite: COSMOS 2123
Catalog number: 21089
Epoch time:      103048.88547271
Element set:     491 
Inclination:       82.9227 deg
RA of node:       181.8841 deg
Eccentricity:    0.0027939
Arg of perigee:   290.2481 deg
Mean anomaly:      69.5671 deg
Mean motion:   13.74404501 rev/day
Decay rate:    8.8000E-007 rev/day^2
Epoch rev:           60369
Checksum:              334

